Regional Weather Roundup
Issued by NWS

Home | Current Version | Previous Version | Graphics & Text | Print | Product List | Glossary On
Versions: 1 2 3 4 5 6 7 8 9 10 11 12 13 14 15 16 17 18 19 20 21 22 23 24 25 26 27
000
ASUS45 KTFX 192210
RWRMT
MONTANA REGIONAL WEATHER ROUNDUP
NATIONAL WEATHER SERVICE GREAT FALLS MT
400 PM MDT WED JUL 19 2017

NOTE: "FAIR" INDICATES FEW OR NO CLOUDS BELOW 12000 FEET WITH NO
SIGNIFICANT WEATHER AND/OR OBSTRUCTIONS TO VISIBILITY.

MTZ001>007-043-192300-
WEST OF THE DIVIDE

CITY           SKY/WX    TMP DP  RH WIND       PRES   REMARKS
KALISPELL      SUNNY     86  38  18 SE8       29.98F
MISSOULA       SUNNY     91  33  12 VRB6      29.97F
BUTTE          MOSUNNY   87  34  15 NE8       30.10F
MULLAN PASS    SUNNY     73  35  25 CALM      30.19F
ANACONDA         N/A     86  41  20 N8        30.05F
DEER LODGE       N/A     84  39  20 N5        30.07F
EUREKA           N/A     88  32  13 MISG      29.95F
HAMILTON         N/A     88  43  20 NW7       29.97F
LIBBY            N/A     88  34  14 N3        29.94F
PLAINS           N/A     92  41  17 CALM      29.95F
$$

MTZ008-052>055-192300-
SOUTHWEST MONTANA

CITY           SKY/WX    TMP DP  RH WIND       PRES   REMARKS
BOZEMAN        SUNNY     89  41  18 NE9       30.04F
DILLON         SUNNY     89  35  14 VRB7      30.06F
W YELLOWSTONE  SUNNY     82  25  12 SW20G29   30.22S
ENNIS          SUNNY     88  27  11 VRB5G13   30.13F
THREE FORKS      N/A     90  39  16 N3        30.02F
TWIN BRIDGES     N/A     88  33  14 CALM      30.05
$$

MTZ009-010-012-014-046-048-049-054-192300-
EAST SLOPES AND CENTRAL MONTANA

CITY           SKY/WX    TMP DP  RH WIND       PRES   REMARKS
CUT BANK       SUNNY     87  20   8 W17G24    30.01F
GREAT FALLS    SUNNY     90  28  11 VRB7      29.99F
HELENA         SUNNY     91  39  16 NE6       29.99F
CHOTEAU          N/A     88  27  11 NE6G14    30.02F
CONRAD           N/A     88  38  17 W9        30.03F
$$

MTZ011-013-016-021-045-047-050-051-192300-
NORTH CENTRAL MONTANA

CITY           SKY/WX    TMP DP  RH WIND       PRES   REMARKS
HAVRE          SUNNY     90  33  13 MISG      29.95S
LEWISTOWN      SUNNY     87  32  14 VRB3      30.05S
N BAR RANCH      N/A     88  30  12 N13G20    30.08F
CHINOOK          N/A     90  36  14 W8        29.93S
$$

MTZ017>020-022>027-061-062-192300-
NORTHEAST MONTANA

CITY           SKY/WX    TMP DP  RH WIND       PRES   REMARKS
GLASGOW        SUNNY     91  39  16 NW10      29.90F
JORDAN           N/A     94  40  15 SW9       29.93F HX  90
SIDNEY         MOSUNNY   86  59  39 S8        29.92S
WOLF POINT     MOSUNNY   95  45  17 SW12G20   29.90S HX  91
MALTA          SUNNY     93  41  16 W12G18    29.89F
PLENTYWOOD       N/A     88  43  20 N3        29.94S
POPLAR           N/A     91  45  19 W8        29.90F
SCOBEY           N/A     89  45  21 N12       29.94F
$$

MTZ028>42-056>058-192300-
SOUTHCENTRAL AND SOUTHEAST MONTANA

CITY           SKY/WX    TMP DP  RH WIND       PRES   REMARKS
BAKER          SUNNY     88  50  27 VRB3      30.02F
BILLINGS       MOSUNNY   92  39  15 SE7       30.01F
LIVINGSTON     SUNNY     92  37  14 N10       30.04F
MILES CITY     MOSUNNY   94  43  17 SE7       29.96F HX  90
BIG TIMBER     SUNNY     91  34  13 W8G15     30.07S
EKALAKA          N/A     85  49  28 W2        30.03
FORSYTH          N/A     93  41  16 CALM      29.96F
LAUREL           N/A     90  42  18 E3        30.01F
$$

REGIONAL REPORTS...DAKOTAS

CITY           SKY/WX    TMP DP  RH WIND       PRES   REMARKS
WILLISTON      MOSUNNY   91  52  26 S9        29.92F
MINOT          MOSUNNY   92  54  27 W14       29.90S HX  90
DICKINSON      SUNNY     84  55  36 SW6       29.98F
BEACH            N/A     84  52  32 W3        30.04S
CROSBY           N/A     84  46  26 VRB6      29.95S
TIOGA            N/A     88  45  22 W7G15     29.96S
WATFORD CITY     N/A     88  55  33 SW14G20   29.93S
BISMARCK       SUNNY     87  60  40 MISG      29.96S
GRAND FORKS    MOSUNNY   82  67  60 SW14      29.88F
FARGO          CLOUDY    81  66  60 S12       29.90S
BUFFALO SD       N/A     85  60  42 NW10      29.96S
RAPID CITY     SUNNY     93  58  30 N24G31    29.99R HX  92
$$

REGIONAL REPORTS...WYOMING/IDAHO/WASHINGTON

CITY           SKY/WX    TMP DP  RH WIND       PRES   REMARKS
GILLETTE       SUNNY     91  45  20 N10G23    30.08F
SHERIDAN       SUNNY     90  44  20 E5        30.06F
BUFFALO WY     SUNNY     85  44  23 N6        30.15F
CODY           SUNNY     84  47  27 N6        30.11F
YELLOWSTONE LA   N/A     77  25  14 VRB7      30.34F
IDAHO FALLS    SUNNY     91  33  12 SW14      30.08F
BOISE          SUNNY     94  37  13 NW10      29.96F
SPOKANE        MOSUNNY   85  40  20 SW7       29.98F
$$

REGIONAL REPORTS...ALBERTA

CITY           SKY/WX    TMP DP  RH WIND       PRES   REMARKS
EDMONTON       SUNNY     73  55  53 NW5       29.91S
CALGARY        SUNNY     79  43  27 S9        29.98F SMOKE
LETHBRIDGE     MOSUNNY   82  39  21 E8        29.97F
MEDICINE HAT   MOSUNNY   84  43  23 NW5       29.93F
WATERTON GATE    N/A     81  39  22 SW13G21     N/A
CARDSTON         N/A     84  36  17 W6          N/A
MILK RIVER       N/A     84  37  18 NW13G18     N/A
$$

REGIONAL REPORTS...SASKATCHEWAN

CITY           SKY/WX    TMP DP  RH WIND       PRES   REMARKS
SWIFT CURRENT  SUNNY     81  43  26 S7        29.98F
REGINA         CLOUDY    79  46  31 N12G18    29.96F
SASKATOON      MOSUNNY   75  52  43 W7        29.96F
CYPRESS HILLS    N/A     79  39  24 N7          N/A
VAL MARIE        N/A     90  30  12 NE5         N/A
ROCKGLEN         N/A     82  36  18 NE5         N/A
$$




USA.gov is the U.S. government's official web portal to all federal, state and local government web resources and services.